[[{"header":{"parameterUnit":"m.s-1","parameterCategory":1,"la1":30.2991,"la2":30.254,"lo1":-89.0895,"lo2":-89.0444,"dy":0.0017,"dx":0.0017,"nx":28,"ny":28,"refTime":"2024-03-15T21:00:00:Z","depth":0,"parameterNumber":2,"parameterNumberName":"U-component_of_WINDS"},"data":[0,0,0,0,0,0,0,0,0,0,0,0,0,0,0,0,0,0,0,0,0,0,0,0,0,0,0,0,0,0,0,0,0,0,0,0,0,0,0,0,0,0,0,0,0,0,0,0,0,0,0,0,0,0,0,0,0,0,-0.0608,-0.0609,0,-0.0742,-0.0743,-0.0745,-0.0781,-0.078,-0.078,-0.0779,-0.0923,-0.0927,-0.0932,0,0,0,0,0,0,0,0,0,0,0,0,0,-0.039,-0.0394,-0.0607,-0.0609,-0.0611,-0.0741,-0.0743,-0.0745,-0.0781,-0.078,-0.0779,-0.0778,-0.0921,-0.0927,-0.0932,0,0,0,0,0,0,0,0,0,0,0,0,0,-0.05,-0.0395,-0.0607,-0.0644,-0.0649,-0.0741,-0.0743,-0.0746,-0.0782,-0.078,-0.0779,-0.0778,-0.0919,-0.0926,-0.0933,-0.0999,0,0,-0.0954,-0.0957,0,0,0,0,0,0,0,0,-0.0494,-0.0508,-0.0637,-0.0642,-0.0647,-0.0743,-0.0719,-0.0831,-0.0782,-0.0731,-0.0779,-0.0777,-0.0864,-0.0876,-0.0904,-0.1006,-0.1012,-0.0955,-0.0959,-0.0962,-0.0964,0,0,0,0,0,0,0,-0.0486,-0.0503,-0.0661,-0.0639,-0.0645,-0.0657,-0.0671,-0.0741,-0.0803,-0.0736,-0.0739,-0.0754,-0.0867,-0.0897,-0.0907,-0.1015,-0.0954,-0.096,-0.0965,-0.0967,-0.1181,-0.1182,0,0,0,0,0,0,-0.0471,-0.0496,-0.0657,-0.0665,-0.0566,-0.0662,-0.0678,-0.0714,-0.0803,-0.0815,-0.0755,-0.0755,-0.0886,-0.0899,-0.0913,-0.0997,-0.0962,-0.0968,-0.0972,-0.1179,-0.1181,-0.1183,0,0,0,0,0,0,-0.0467,-0.0485,-0.0651,-0.0581,-0.0603,-0.0667,-0.0707,-0.0717,-0.0747,-0.0817,-0.0829,-0.0773,-0.0886,-0.0903,-0.0978,-0.1002,-0.0971,-0.0977,-0.1177,-0.118,-0.1182,-0.1165,0,0,0,0,0,0,-0.046,-0.0483,-0.0507,-0.0581,-0.0607,-0.0711,-0.0709,-0.0721,-0.0758,-0.076,-0.0837,-0.0849,-0.0886,-0.0967,-0.0984,-0.1011,-0.0983,-0.1175,-0.1178,-0.1181,-0.1164,-0.1167,-0.1169,0,0,0,0,0,-0.0452,-0.0498,-0.0508,-0.0527,-0.0638,-0.0712,-0.0727,-0.0767,-0.076,-0.0786,-0.0831,-0.0847,-0.0997,-0.0974,-0.0994,-0.1024,-0.1174,-0.1177,-0.1181,-0.1163,-0.1166,-0.1169,0,0,0,0,0,0,-0.0427,-0.0509,-0.052,-0.0592,-0.0645,-0.0718,-0.0752,-0.0769,-0.0827,-0.0826,-0.0875,-0.0892,-0.0963,-0.1002,-0.0975,-0.1094,-0.1086,-0.1094,-0.1066,-0.107,-0.1072,-0.1061,-0.0988,0,0,0,0,0,-0.043,-0.0481,-0.0551,-0.0607,-0.0633,-0.0688,-0.0722,-0.0748,-0.0805,-0.0829,-0.0879,-0.0937,-0.0997,-0.1036,-0.1095,-0.117,-0.1189,-0.1201,-0.1203,-0.1205,-0.1211,-0.1255,-0.1261,-0.1194,-0.1194,-0.1194,0,0,-0.0436,-0.0487,-0.0517,-0.0603,-0.0647,-0.0702,-0.0706,-0.0764,-0.0805,-0.0838,-0.0911,-0.095,-0.1018,-0.1093,-0.1129,-0.1127,-0.1234,-0.121,-0.1211,-0.1216,-0.1259,-0.1266,-0.1271,-0.1196,-0.1196,-0.1195,0,0,-0.0475,-0.0518,-0.0569,-0.0614,-0.068,-0.0716,-0.0729,-0.0801,-0.0827,-0.0901,-0.0927,-0.0979,-0.1081,-0.1129,-0.1166,-0.1225,-0.1242,-0.1244,-0.1257,-0.1299,-0.1305,-0.131,-0.1331,-0.1338,-0.1249,-0.1249,-0.1249,0,-0.0474,-0.0555,-0.0595,-0.065,-0.0689,-0.072,-0.0774,-0.0815,-0.0899,-0.0925,-0.0922,-0.1052,-0.11,-0.1187,-0.1201,-0.1231,-0.1248,-0.1234,-0.13,-0.1306,-0.1311,-0.1332,-0.134,-0.1249,-0.1249,-0.1249,-0.1249,0,-0.0552,-0.0607,-0.0642,-0.0719,-0.0761,-0.0816,-0.0867,-0.0906,-0.0929,-0.0966,-0.1042,-0.1101,-0.1173,-0.1196,-0.122,-0.1288,-0.1284,-0.129,-0.1283,-0.1316,-0.1337,-0.1345,-0.1248,-0.1249,-0.1249,-0.1249,0,0,-0.0576,-0.0675,-0.0687,-0.0723,-0.0799,-0.0845,-0.0903,-0.0971,-0.1004,-0.1061,-0.1112,-0.1199,-0.1205,-0.1247,-0.1277,-0.1315,-0.1358,-0.1316,-0.1319,-0.1322,-0.1438,-0.1432,-0.144,-0.1371,-0.1372,-0.1374,-0.1432,0,-0.0624,-0.0725,-0.0763,-0.0847,-0.09,-0.0931,-0.0982,-0.1036,-0.1073,-0.1126,-0.1169,-0.123,-0.1233,-0.1259,-0.1297,-0.1344,-0.1382,-0.1341,-0.142,-0.1422,-0.14,-0.1451,-0.1445,-0.1497,-0.144,-0.1442,-0.1443,0,-0.0693,-0.0748,-0.0836,-0.0907,-0.0931,-0.0975,-0.1042,-0.1091,-0.1154,-0.1179,-0.1227,-0.1255,-0.132,-0.131,-0.14,-0.1372,-0.1407,-0.1435,-0.1439,-0.1447,-0.1433,-0.146,-0.1515,-0.1522,-0.1456,-0.1455,-0.1454,0,-0.0701,-0.0799,-0.0864,-0.0894,-0.0978,-0.1009,-0.1046,-0.1107,-0.1147,-0.1207,-0.1233,-0.13,-0.1337,-0.139,-0.1436,-0.1425,-0.1523,-0.1517,-0.1547,-0.1546,-0.1565,-0.1563,-0.1625,-0.1589,-0.1589,-0.1589,-0.1589,0,-0.075,-0.0803,-0.0869,-0.0909,-0.097,-0.1016,-0.1076,-0.1116,-0.117,-0.1221,-0.1254,-0.1301,-0.1359,-0.1415,-0.1452,-0.1522,-0.1539,-0.1563,-0.1572,-0.1559,-0.1556,-0.1582,-0.1579,-0.1591,-0.1591,-0.159,-0.159,0,-0.077,-0.0816,-0.0889,-0.0963,-0.0983,-0.1024,-0.1089,-0.1131,-0.117,-0.1234,-0.1252,-0.1315,-0.1382,-0.1434,-0.1522,-0.1548,-0.1622,-0.1632,-0.1599,-0.1604,-0.1631,-0.1627,-0.1711,-0.1725,-0.168,-0.168,-0.1681,0,-0.0797,-0.0838,-0.0915,-0.095,-0.0986,-0.1043,-0.1082,-0.113,-0.1171,-0.1247,-0.128,-0.1349,-0.1407,-0.1514,-0.1569,-0.1637,-0.1649,-0.1674,-0.166,-0.1646,-0.165,-0.1646,-0.1651,-0.1675,-0.1676,-0.1676,-0.1676,0,-0.0841,-0.0862,-0.0916,-0.098,-0.1026,-0.1079,-0.1133,-0.1161,-0.1219,-0.1264,-0.1332,-0.1376,-0.1466,-0.1535,-0.1609,-0.1651,-0.1674,-0.168,-0.1691,-0.1678,-0.1657,-0.1669,-0.1603,-0.1678,-0.1678,-0.1677,-0.1677,-0.1677,-0.0865,-0.0903,-0.0963,-0.1024,-0.1069,-0.1119,-0.1162,-0.1207,-0.1263,-0.1338,-0.1364,-0.1434,-0.1499,-0.1601,-0.1643,-0.1701,-0.1702,-0.1717,-0.1721,-0.1724,-0.1723,-0.1648,-0.1715,-0.1715,-0.1715,-0.1715,-0.1715,0,-0.091,-0.095,-0.1006,-0.1079,-0.1127,-0.1143,-0.1204,-0.1244,-0.1305,-0.1362,-0.1418,-0.1498,-0.1565,-0.1626,-0.1698,-0.1732,-0.1745,-0.1749,-0.1747,-0.1756,-0.1718,-0.1701,-0.1738,-0.1738,-0.1738,-0.1738,-0.1738,-0.1738,-0.0939,-0.1004,-0.1033,-0.1122,-0.1163,-0.123,-0.1264,-0.1311,-0.1357,-0.1443,-0.1499,-0.1537,-0.1597,-0.1673,-0.1737,-0.1754,-0.1779,-0.178,-0.18,-0.1762,-0.1759,-0.1756,-0.1741,-0.1785,-0.1785,-0.1834,-0.1834,-0.1834]},{"header":{"parameterUnit":"m.s-1","parameterCategory":1,"la1":30.2991,"la2":30.254,"lo1":-89.0895,"lo2":-89.0444,"dy":0.0017,"dx":0.0017,"nx":28,"ny":28,"refTime":"2024-03-15T21:00:00:Z","depth":0,"parameterNumber":3,"parameterNumberName":"V-component_of_WINDS"},"data":[0,0,0,0,0,0,0,0,0,0,0,0,0,0,0,0,0,0,0,0,0,0,0,0,0,0,0,0,0,0,0,0,0,0,0,0,0,0,0,0,0,0,0,0,0,0,0,0,0,0,0,0,0,0,0,0,0,0,2.1656,2.1657,0,2.1782,2.1783,2.1784,2.1811,2.1811,2.181,2.1809,2.1936,2.194,2.1944,0,0,0,0,0,0,0,0,0,0,0,0,0,2.1439,2.1443,2.1656,2.1658,2.1659,2.1781,2.1783,2.1785,2.1812,2.181,2.1809,2.1808,2.1935,2.194,2.1945,0,0,0,0,0,0,0,0,0,0,0,0,0,2.1545,2.1444,2.1656,2.1687,2.1691,2.1781,2.1783,2.1785,2.1812,2.181,2.1809,2.1808,2.1933,2.1939,2.1946,2.2012,0,0,2.1965,2.1968,0,0,0,0,0,0,0,0,2.1539,2.1553,2.1681,2.1685,2.169,2.1779,2.1753,2.1861,2.1812,2.1766,2.1809,2.1807,2.1885,2.1895,2.1922,2.2018,2.2024,2.1966,2.1969,2.1972,2.1974,0,0,0,0,0,0,0,2.1532,2.1548,2.1706,2.1683,2.1688,2.1695,2.1709,2.1774,2.1832,2.177,2.1772,2.1787,2.1887,2.1916,2.1925,2.2026,2.1965,2.1971,2.1975,2.1977,2.2183,2.2185,0,0,0,0,0,0,2.1519,2.1542,2.1702,2.1709,2.161,2.17,2.1715,2.1752,2.1831,2.1842,2.1788,2.1788,2.1905,2.1918,2.193,2.2013,2.1972,2.1978,2.1982,2.2182,2.2184,2.2186,0,0,0,0,0,0,2.1514,2.1533,2.1697,2.1626,2.1648,2.1705,2.1746,2.1755,2.1784,2.1845,2.1855,2.1806,2.1905,2.1921,2.1992,2.2018,2.1981,2.1987,2.218,2.2182,2.2185,2.2181,0,0,0,0,0,0,2.1508,2.1531,2.1557,2.1627,2.1651,2.1757,2.1748,2.1759,2.1795,2.1796,2.1865,2.1875,2.1905,2.1982,2.1998,2.2026,2.1992,2.2178,2.2181,2.2184,2.2179,2.2183,2.2186,0,0,0,0,0,2.15,2.1551,2.1559,2.1578,2.1685,2.1758,2.1772,2.1806,2.1797,2.1824,2.1863,2.1873,2.2012,2.1989,2.2007,2.2038,2.2176,2.218,2.2184,2.2177,2.2182,2.2186,0,0,0,0,0,0,2.1483,2.1561,2.157,2.1645,2.1695,2.1763,2.1798,2.181,2.1864,2.1863,2.1902,2.1918,2.1986,2.2019,2.1992,2.2107,2.2094,2.2101,2.2083,2.2088,2.2092,2.2082,2.1997,0,0,0,0,0,2.1488,2.1541,2.1606,2.1666,2.1691,2.174,2.1773,2.1795,2.1848,2.1869,2.1913,2.1964,2.202,2.2056,2.211,2.2184,2.2199,2.2213,2.2217,2.222,2.2226,2.2268,2.2275,2.2198,2.2198,2.2198,0,0,2.1499,2.1548,2.1579,2.1664,2.1705,2.1759,2.1757,2.1814,2.1855,2.1878,2.1948,2.1982,2.2041,2.2114,2.2148,2.2144,2.2251,2.2225,2.2226,2.2231,2.2272,2.228,2.2286,2.22,2.22,2.2199,0,0,2.1546,2.1589,2.1643,2.1685,2.1747,2.178,2.1793,2.1859,2.1883,2.1954,2.1972,2.202,2.2115,2.2157,2.2191,2.2254,2.2265,2.227,2.229,2.233,2.2336,2.2342,2.2365,2.2372,2.2276,2.2276,2.2276,0,2.1552,2.1634,2.167,2.1726,2.1763,2.1786,2.1842,2.188,2.1957,2.1982,2.1976,2.2095,2.2137,2.222,2.2235,2.2262,2.2278,2.2263,2.2332,2.2338,2.2344,2.2366,2.2375,2.2276,2.2276,2.2276,2.2276,0,2.1638,2.1695,2.1731,2.1806,2.1846,2.1902,2.1946,2.1983,2.2001,2.2034,2.2106,2.2157,2.2222,2.2243,2.2261,2.2329,2.2324,2.2324,2.2313,2.2351,2.2373,2.2381,2.2277,2.2277,2.2277,2.2276,0,0,2.1678,2.1772,2.1784,2.1819,2.1889,2.1934,2.199,2.2055,2.2086,2.2138,2.2187,2.2266,2.2267,2.2305,2.2328,2.2364,2.2411,2.236,2.2362,2.2368,2.2489,2.2488,2.2498,2.2418,2.242,2.2422,2.2484,0,2.1735,2.1837,2.1871,2.1956,2.2009,2.2032,2.2081,2.213,2.2162,2.2211,2.2247,2.2303,2.23,2.2323,2.2359,2.2397,2.2436,2.2393,2.2464,2.2466,2.2449,2.2509,2.2509,2.2565,2.2492,2.2494,2.2495,0,2.1814,2.1868,2.1958,2.2023,2.2046,2.209,2.2152,2.2199,2.2254,2.2275,2.2318,2.2338,2.2398,2.2383,2.2466,2.2436,2.2467,2.249,2.2494,2.2502,2.2483,2.2519,2.2584,2.2592,2.2509,2.2507,2.2506,0,2.1835,2.193,2.1997,2.2025,2.2102,2.2132,2.2165,2.222,2.2256,2.231,2.2334,2.2394,2.2426,2.2472,2.2508,2.2493,2.2588,2.2575,2.2607,2.2607,2.2627,2.2625,2.2698,2.2646,2.2646,2.2645,2.2645,0,2.1895,2.1949,2.2007,2.2048,2.211,2.2148,2.2208,2.2242,2.229,2.2338,2.2361,2.2406,2.245,2.2501,2.2529,2.2594,2.2608,2.2627,2.2634,2.2625,2.2623,2.2647,2.2644,2.2648,2.2647,2.2647,2.2646,0,2.1929,2.197,2.2044,2.211,2.2128,2.2171,2.2228,2.2268,2.2301,2.2362,2.2378,2.243,2.249,2.2531,2.2608,2.2627,2.2698,2.2703,2.2679,2.2683,2.2713,2.2709,2.2803,2.2818,2.2755,2.2756,2.2756,0,2.1964,2.2007,2.2078,2.2112,2.2146,2.22,2.2237,2.2276,2.2314,2.2381,2.2413,2.2475,2.2527,2.2622,2.2667,2.2726,2.2734,2.2763,2.2743,2.2733,2.2735,2.2732,2.2737,2.2766,2.2766,2.2767,2.2767,0,2.2023,2.2042,2.2095,2.2156,2.22,2.2249,2.2299,2.2325,2.2372,2.2414,2.2476,2.2516,2.2595,2.2657,2.272,2.2754,2.2769,2.2773,2.2783,2.2775,2.276,2.2769,2.2688,2.2771,2.277,2.277,2.277,2.277,2.206,2.2099,2.2155,2.2214,2.2255,2.2301,2.2343,2.2381,2.2434,2.2501,2.2521,2.2586,2.264,2.2727,2.2762,2.2813,2.281,2.2826,2.283,2.2833,2.2833,2.2751,2.2825,2.2825,2.2825,2.2825,2.2825,0,2.2121,2.2158,2.2212,2.228,2.2327,2.2336,2.2391,2.2429,2.2486,2.2536,2.2587,2.2658,2.2718,2.2767,2.2829,2.286,2.2869,2.2875,2.2874,2.2881,2.2832,2.2817,2.2868,2.2868,2.2868,2.2868,2.2868,2.2868,2.2158,2.2225,2.2249,2.2337,2.2374,2.2438,2.2469,2.2511,2.2551,2.263,2.268,2.2712,2.2761,2.2827,2.2882,2.2895,2.2917,2.2922,2.2936,2.289,2.2885,2.288,2.2866,2.2926,2.2926,2.2982,2.2982,2.2982]}]]